Regional Weather Roundup
Issued by NWS Sioux Falls, SD

Home | Current Version | Previous Version | Graphics & Text | Print | Product List | Glossary On
Versions: 1 2 3 4 5 6 7 8 9 10 11 12 13 14 15 16 17 18 19 20 21 22 23 24 25 26 27 28 29 30 31 32 33 34 35 36 37 38 39 40 41 42 43 44 45 46 47 48 49 50
000
ASUS43 KFSD 212002
RWRFSD

WEATHER ROUNDUP FOR SE SOUTH DAKOTA/SW MINNESOTA/NW IOWA
NATIONAL WEATHER SERVICE SIOUX FALLS SD
200 PM CST SUN DEC 21 2014

NOTE: "FAIR" INDICATES FEW OR NO CLOUDS BELOW 12,000 FEET WITH NO
SIGNIFICANT WEATHER AND OR OBSTRUCTIONS TO VISIBILITY.


SDZ038>040-050-052>070-212100-
SOUTHEAST SOUTH DAKOTA

CITY           SKY/WX    TMP DP  RH WIND       PRES   REMARKS
CHAMBERLAIN    NOT AVBL
HURON          CLOUDY    33  30  88 SE15G25   29.53F WCI  23
MADISON        CLOUDY    32  32 100 S18G25    29.59F FOG     WCI  20
MITCHELL       SUNNY     37  32  82 SE17      29.55F
SIOUX FALLS    CLOUDY    35  34  96 S15       29.63F FOG     WCI  25
WINNER         FAIR      43  29  57 S15       29.45F
YANKTON        PTSUNNY   37  34  87 SE15      29.61F
$$

MNZ071-072-080-081-089-090-097-098-212100-
SOUTHWEST MINNESOTA

CITY           SKY/WX    TMP DP  RH WIND       PRES   REMARKS
FAIRMONT       CLOUDY    36  34  93 S14       29.70F VSB 1/2
JACKSON        FOG       36  36 100 S16       29.69F VSB 3/4
LUVERNE        CLOUDY    37  36  93 S13       29.65F FOG
MARSHALL       CLOUDY    36  30  80 S12       29.64F
MONTEVIDEO     CLOUDY    36  36 100 S12       29.65F FOG
PIPESTONE      MIX PCPN  34  34 100 S14       29.62F VSB 1/4 WCI  24
REDWOOD FALLS  CLOUDY    35  34  96 SE8       29.68F FOG     WCI  29
TRACY          CLOUDY    36  35  95 S7        29.65S FOG
WINDOM         FOG       37  37 100 S10G17    29.66F VSB 1/2
WORTHINGTON    CLOUDY    37 -11  12 S16G22    29.65F VSB 1
$$

IAZ001>003-012>014-020>022-031-032-NEZ013-014-SDZ071-212100-
NORTHWEST IOWA

CITY           SKY/WX    TMP DP  RH WIND       PRES   REMARKS
DENISON        CLOUDY    39  39 100 S24G33    29.72F FOG
ESTHERVILLE    CLOUDY    36  36 100 S20       29.70S FOG
SIOUX CITY     CLOUDY    42  37  82 S18G24    29.70F
SPENCER        CLOUDY    38  36  92 S16       29.69F FOG
$$

ABBREVIATIONS USED IN REMARKS
   TC - TEMPERATURE IN CELSIUS
  WCI - WIND CHILL INDEX
   HX - HEAT INDEX
  VSB - VISIBILITY




USA.gov is the U.S. government's official web portal to all federal, state and local government web resources and services.